Observations for Trim Market St
| Time | AQI | Temp °C | Hum % | Pres Pa | CO μg/m³ | H₂S μg/m³ | NO μg/m³ | NO₂ μg/m³ | O₃ μg/m³ | SO₂ μg/m³ | PM1 μg/m³ | PM2.5 μg/m³ | PM10 μg/m³ |
|---|---|---|---|---|---|---|---|---|---|---|---|---|---|
| Wednesday 26 August 2026 | |||||||||||||
| 03:17 | 2 | 16.6 | 85 | 2,147,483,647 | 0.3 | 0 | 1.93 | 16.9 | 35.81 | 0 | 4.99 | 5.58 | 9.68 |
| 03:16 | 2 | 16.6 | 85 | 2,147,483,647 | 0.29 | 0 | 1.7 | 14.15 | 33.92 | 0 | 3.56 | 5.12 | 9.68 |
| 03:13 | 2 | 16.7 | 85 | 2,147,483,647 | 0.3 | 0 | 1.46 | 15.52 | 31.14 | 0 | 2.14 | 4.2 | 9.14 |
| 03:05 | 2 | 16.6 | 85 | 2,147,483,647 | 0.3 | 0 | 1.59 | 15.32 | 34.81 | 0 | 5.7 | 6.27 | 10.21 |
| 03:04 | 2 | 16.7 | 85 | 2,147,483,647 | 0.3 | 0 | 1.54 | 14.99 | 37.76 | 0 | 4.99 | 5.58 | 9.68 |
| 03:03 | 2 | 16.7 | 85 | 2,147,483,647 | 0.3 | 0 | 1.56 | 19.78 | 35.34 | 0 | 4.99 | 6.05 | 9.68 |
| 03:02 | 2 | 16.7 | 85 | 2,147,483,647 | 0.31 | 0 | 1.69 | 14.99 | 32.01 | 0 | 6.41 | 6.52 | 11.29 |
| 03:01 | 2 | 16.7 | 85 | 2,147,483,647 | 0.3 | 0 | 1.63 | 15 | 33.14 | 0 | 3.56 | 4.65 | 8.6 |
| 03:00 | 2 | 16.7 | 85 | 2,147,483,647 | 0.31 | 0 | 1.6 | 15.57 | 32.01 | 0 | 4.99 | 6.05 | 11.28 |
| 02:59 | 2 | 16.7 | 85 | 2,147,483,647 | 0.3 | 0 | 1.46 | 14.46 | 35.94 | 0 | 5.7 | 6.98 | 11.28 |
| 02:58 | 2 | 16.6 | 85 | 2,147,483,647 | 0.32 | 0 | 1.55 | 16.96 | 25.51 | 0 | 5.7 | 6.51 | 10.21 |
| 02:57 | 2 | 16.6 | 85 | 2,147,483,647 | 0.32 | 0 | 1.41 | 15.5 | 30.34 | 0 | 2.85 | 5.59 | 10.21 |
| 02:56 | 2 | 16.7 | 85 | 2,147,483,647 | 0.3 | 0 | 1.45 | 21.51 | 33.78 | 0 | 5.7 | 6.05 | 10.75 |
| 02:55 | 2 | 16.6 | 85 | 2,147,483,647 | 0.3 | 0 | 1.42 | 16.34 | 33.86 | 0 | 5.7 | 6.98 | 13.43 |
| 02:54 | 2 | 16.7 | 85 | 2,147,483,647 | 0.3 | 0 | 1.43 | 14.86 | 34.39 | 0 | 5.7 | 6.98 | 12.89 |
| 02:53 | 2 | 16.6 | 85 | 2,147,483,647 | 0.31 | 0 | 1.52 | 16.03 | 31.67 | 0 | 4.28 | 5.59 | 10.21 |
| 02:52 | 2 | 16.7 | 85 | 2,147,483,647 | 0.3 | 0 | 1.37 | 14.45 | 39.84 | 0 | 6.41 | 6.52 | 10.75 |
| 02:50 | 2 | 16.6 | 85 | 2,147,483,647 | 0.3 | 0 | 1.24 | 16.03 | 30.02 | 0 | 5.7 | 7.91 | 13.97 |
| 02:49 | 2 | 16.6 | 85 | 2,147,483,647 | 0.3 | 0 | 1.24 | 16.35 | 37.27 | 0 | 4.99 | 5.59 | 9.14 |
| 02:48 | 2 | 16.7 | 85 | 2,147,483,647 | 0.29 | 0 | 1.24 | 14.72 | 32.39 | 0 | 5.7 | 6.27 | 9.68 |